PulseSat

PulseSat

COSMOS 2513

Last updated on Dec. 2, 2018, 12:08 a.m. UTC

1 41121U 15075A   18333.98556604 -.00000145  00000-0  00000-0 0  9999
2 41121   0.0693 106.6508 0004553 158.5838 238.6929  1.00272259 10963
UTC
Height (km)
Latitude
Longitude
Inclination
Orbital Period

Next 30 passes for location: Hong Kong

Rise time Rise Azimuth (degrees) Set time Set Azimuth (degrees) Duration Max altitude (degrees)

No matching passes for this satellites

PulseSat

PulseSat is the new satellites software and hardware trackering solution by Pulsely.
Satellite Two Line Element Set source: US Air Force Space Command

Download PulseSat for iOS
© 2017 Pulsely Limited